Find Starlink 3603

NORAD ID: 51816 Int'l Des: 2022-017 Owner: SPXS Country: US Constellation: starlink operational
LEOCIRCULAR

Live Position

Loading 3D Globe...

About Starlink 3603

Description loading...

Upcoming Passes

Passes for default location (London). Set your location on the main map for personalized predictions.

Altitude History

Loading altitude history...

Two-Line Element Set

1 51816U 22017BA 26105.48415441 .00691525 29184-3 51353-3 0 9993
2 51816 53.2052 122.1514 0000402 29.6442 330.4619 16.14917039230270
Epoch: Apr 15, 2026 • Age: 9 hours

Current Status

Altitude 233.5 km
Velocity 7.77 km/s
Sub-Earth Point 30.74°N, 8°W
Launch Date Feb 25, 2022
Age 4.1 years
Type internet

Technical Details

Classification Payload
Mass 297.00 kg
Dry Mass 275.00 kg
Total Mass 297.00 kg
Length 0.20 m
Diameter 2.80 m
Span 9.00 m
Shape Box + pan
Manufacturer SPXS
Bus Type Starlink
Phase Status In Orbit
Owner/State SPXS/US

Most Searched